Terminal Aerodrome Forecast
Issued by NWS Springfield, MO

Home | Current Version | Previous Version | Text Only | Print | Product List | Glossary On
Versions: 1 2 3 4 5 6 7 8 9 10 11 12 13 14 15 16 17 18 19 20 21
887
FTUS43 KSGF 042335
TAFSGF
TAF
KSGF 042335Z 0500/0524 VRB03KT P6SM FEW020
     FM050600 VRB03KT 3SM BR SKC
      TEMPO 0509/0513 1/2SM FG SCT008
     FM051300 15006KT 4SM BR SCT020
     FM051600 15009KT P6SM SCT110=

USA.gov is the U.S. government's official web portal to all federal, state and local government web resources and services.